[[{"header":{"parameterUnit":"m.s-1","parameterCategory":2,"la1":30.2991,"la2":30.254,"lo1":-89.0895,"lo2":-89.0444,"dy":0.0017,"dx":0.0017,"nx":28,"ny":28,"refTime":"2023-09-13T21:00:00:Z","depth":"0","parameterNumber":2,"parameterNumberName":"U-component_of_CURRENTS"},"data":[0,0,0,0,0,0,0,0,0,0,0,0,0,0,0,0,0,0,0,0,0,0,0,0,0,0,0,0,0,0,0,0,0,0,0,0,0,0,0,0,0,0,0,0,0,0,0,0,0,0,0,0,0,0,0,0,0,0,0.238,0.238,0,0.2417,0.2417,0.2418,0.2389,0.2388,0.2386,0.2386,0.2377,0.2377,0.2378,0,0,0,0,0,0,0,0,0,0,0,0,0,0.2273,0.2275,0.238,0.238,0.2381,0.2417,0.2417,0.2418,0.2389,0.2387,0.2386,0.2385,0.2376,0.2377,0.2378,0,0,0,0,0,0,0,0,0,0,0,0,0,0.2314,0.2276,0.238,0.2373,0.2373,0.2417,0.2417,0.2418,0.2389,0.2387,0.2386,0.2384,0.2376,0.2377,0.2378,0.2416,0,0,0.2382,0.2382,0,0,0,0,0,0,0,0,0.2312,0.2317,0.2373,0.2373,0.2373,0.2399,0.2377,0.2416,0.2389,0.238,0.2385,0.2384,0.2382,0.2383,0.2391,0.2416,0.2415,0.2382,0.2382,0.2383,0.2383,0,0,0,0,0,0,0,0.2309,0.2316,0.2392,0.2374,0.2374,0.2364,0.2368,0.2384,0.2387,0.2381,0.238,0.2388,0.2381,0.239,0.239,0.2415,0.2382,0.2383,0.2383,0.2384,0.2518,0.252,0,0,0,0,0,0,0.2312,0.2314,0.2391,0.2394,0.2341,0.2368,0.2372,0.239,0.2388,0.2387,0.2389,0.2386,0.2389,0.2389,0.239,0.2467,0.2383,0.2384,0.2384,0.2515,0.2518,0.2521,0,0,0,0,0,0,0.2309,0.2319,0.239,0.2355,0.2364,0.2372,0.2392,0.2392,0.2401,0.2395,0.2392,0.2399,0.2387,0.2388,0.2421,0.2465,0.2384,0.2385,0.2511,0.2516,0.252,0.2601,0,0,0,0,0,0,0.2306,0.2318,0.2334,0.2356,0.2366,0.2421,0.2394,0.2394,0.241,0.2406,0.2403,0.24,0.2386,0.2419,0.2422,0.2465,0.2386,0.2508,0.2513,0.2519,0.2594,0.2607,0.2618,0,0,0,0,0,0.2303,0.2328,0.2335,0.2345,0.2388,0.2422,0.2427,0.2424,0.2412,0.2425,0.243,0.24,0.2456,0.2422,0.2425,0.2469,0.2505,0.2512,0.2518,0.2589,0.2605,0.2618,0,0,0,0,0,0,0.2289,0.2329,0.2336,0.2373,0.24,0.2418,0.2434,0.2434,0.245,0.2446,0.2432,0.2432,0.2482,0.247,0.2434,0.2528,0.2478,0.2486,0.2532,0.2546,0.2558,0.2549,0.2387,0,0,0,0,0,0.2298,0.2327,0.2361,0.2391,0.2408,0.2424,0.2439,0.2441,0.2457,0.2462,0.2462,0.2477,0.2514,0.2522,0.2545,0.2589,0.2609,0.2624,0.2636,0.2646,0.2643,0.2726,0.2745,0.2543,0.2543,0.2543,0,0,0.2298,0.2327,0.2341,0.239,0.241,0.2447,0.2428,0.2457,0.2487,0.2461,0.2499,0.2518,0.2538,0.2594,0.2615,0.2585,0.2721,0.2654,0.2662,0.2654,0.2735,0.2754,0.2771,0.2547,0.2547,0.2546,0,0,0.2315,0.2345,0.2374,0.2404,0.2445,0.2464,0.2476,0.2504,0.2517,0.2563,0.2565,0.2611,0.2644,0.2677,0.2698,0.2792,0.2786,0.2802,0.2847,0.2928,0.2945,0.296,0.3035,0.3056,0.2802,0.2802,0.2802,0,0.2311,0.236,0.2387,0.2426,0.2454,0.2476,0.2513,0.2542,0.2575,0.26,0.2582,0.268,0.2689,0.278,0.2811,0.2818,0.2858,0.2786,0.2943,0.2958,0.2971,0.3044,0.3066,0.2807,0.2806,0.2806,0.2805,0,0.2351,0.2393,0.2415,0.2476,0.251,0.2546,0.2592,0.2624,0.2644,0.2674,0.2757,0.2788,0.284,0.2867,0.2864,0.2977,0.2974,0.2952,0.29,0.2996,0.3068,0.3089,0.2813,0.2812,0.281,0.2809,0,0,0.2332,0.2423,0.243,0.2463,0.2538,0.2564,0.2634,0.2701,0.2748,0.2793,0.2862,0.2941,0.2952,0.2978,0.2996,0.3062,0.3202,0.3046,0.3048,0.311,0.3389,0.3425,0.3451,0.3209,0.3212,0.3215,0.3408,0,0.2353,0.2425,0.2471,0.2538,0.2579,0.2629,0.269,0.2754,0.281,0.2882,0.2942,0.3014,0.2999,0.3034,0.3103,0.3173,0.3258,0.3151,0.3295,0.3299,0.3311,0.3477,0.3354,0.3519,0.3429,0.3432,0.3435,0,0.2373,0.2423,0.2486,0.2572,0.2594,0.2634,0.273,0.2789,0.2902,0.2955,0.304,0.3081,0.3194,0.316,0.3339,0.3273,0.3341,0.3391,0.34,0.3413,0.3375,0.3405,0.3561,0.3416,0.3467,0.3465,0.3462,0,0.2337,0.243,0.2476,0.2505,0.2607,0.2638,0.2692,0.2801,0.2861,0.3001,0.3054,0.3191,0.3257,0.3367,0.3464,0.3415,0.3658,0.3602,0.3708,0.371,0.3622,0.3611,0.364,0.3748,0.3748,0.3747,0.3747,0,0.2342,0.2376,0.2455,0.2479,0.2532,0.2611,0.2681,0.2764,0.2886,0.297,0.3075,0.3173,0.3311,0.3447,0.3524,0.3703,0.3718,0.376,0.3783,0.3651,0.3641,0.3521,0.3437,0.3755,0.3753,0.3752,0.375,0,0.2294,0.2352,0.2399,0.2488,0.2513,0.2543,0.2649,0.2714,0.2832,0.2946,0.2991,0.319,0.3395,0.3533,0.3742,0.3789,0.3845,0.3997,0.3837,0.3839,0.3785,0.371,0.368,0.3584,0.4154,0.4157,0.4159,0,0.2278,0.2297,0.2371,0.2392,0.2427,0.2485,0.2539,0.2673,0.2755,0.2956,0.3019,0.3244,0.341,0.3745,0.3904,0.4104,0.394,0.4091,0.398,0.3814,0.3746,0.3568,0.3473,0.3901,0.3901,0.39,0.39,0,0.2237,0.2254,0.2291,0.2332,0.2375,0.2432,0.2519,0.257,0.2738,0.2852,0.3042,0.3184,0.3523,0.3714,0.3989,0.4085,0.3876,0.4095,0.3957,0.3604,0.3375,0.3281,0.3733,0.3898,0.3898,0.3898,0.3899,0.3899,0.2187,0.2196,0.2237,0.2268,0.2319,0.237,0.2389,0.2517,0.2635,0.2795,0.2987,0.3186,0.3466,0.3858,0.3939,0.3965,0.3911,0.3861,0.3806,0.3657,0.3491,0.3959,0.4124,0.4125,0.4126,0.4127,0.4128,0,0.2124,0.2149,0.2178,0.2216,0.2233,0.2287,0.2374,0.2397,0.2508,0.272,0.2889,0.3176,0.3377,0.3582,0.3738,0.3662,0.3488,0.3553,0.3223,0.3164,0.3623,0.3535,0.3535,0.3535,0.3535,0.3535,0.3535,0.3535,0.2097,0.2098,0.2119,0.212,0.2142,0.2141,0.2164,0.2237,0.2366,0.2556,0.2732,0.2911,0.3172,0.3348,0.3342,0.33,0.3028,0.2933,0.2899,0.3156,0.3177,0.3196,0.3092,0.3,0.2999,0.2306,0.23,0.2296]},{"header":{"parameterUnit":"m.s-1","parameterCategory":2,"la1":30.2991,"la2":30.254,"lo1":-89.0895,"lo2":-89.0444,"dy":0.0017,"dx":0.0017,"nx":28,"ny":28,"refTime":"2023-09-13T21:00:00:Z","depth":"0","parameterNumber":3,"parameterNumberName":"V-component_of_CURRENTS"},"data":[0,0,0,0,0,0,0,0,0,0,0,0,0,0,0,0,0,0,0,0,0,0,0,0,0,0,0,0,0,0,0,0,0,0,0,0,0,0,0,0,0,0,0,0,0,0,0,0,0,0,0,0,0,0,0,0,0,0,0.0249,0.0248,0,0.0193,0.0192,0.0192,0.0142,0.0141,0.0141,0.014,0.007,0.0068,0.0067,0,0,0,0,0,0,0,0,0,0,0,0,0,0.0275,0.0275,0.0249,0.0248,0.0248,0.0193,0.0192,0.0191,0.0142,0.0141,0.014,0.014,0.007,0.0068,0.0067,0,0,0,0,0,0,0,0,0,0,0,0,0,0.0246,0.0275,0.0249,0.0217,0.0213,0.0193,0.0192,0.0191,0.0142,0.0141,0.014,0.0139,0.0071,0.0069,0.0067,0.0071,0,0,0.006,0.0059,0,0,0,0,0,0,0,0,0.0248,0.0245,0.0222,0.0219,0.0215,0.0174,0.0176,0.015,0.0142,0.0169,0.014,0.0139,0.0104,0.0099,0.009,0.0067,0.0064,0.006,0.0059,0.0058,0.0057,0,0,0,0,0,0,0,0.025,0.0247,0.0226,0.0221,0.0217,0.0192,0.0187,0.017,0.0141,0.0166,0.0163,0.0157,0.0102,0.0092,0.0088,0.0063,0.006,0.0058,0.0057,0.0056,0.0041,0.0042,0,0,0,0,0,0,0.026,0.0249,0.0228,0.0225,0.023,0.0192,0.0187,0.0187,0.0141,0.0134,0.0158,0.0155,0.0096,0.0091,0.0085,0.0098,0.0058,0.0056,0.0055,0.004,0.0041,0.0042,0,0,0,0,0,0,0.0261,0.0259,0.023,0.0235,0.023,0.0193,0.0194,0.0187,0.0178,0.0135,0.0127,0.0156,0.0095,0.0088,0.0077,0.0094,0.0055,0.0053,0.0039,0.004,0.0042,0.0116,0,0,0,0,0,0,0.0263,0.026,0.0267,0.0237,0.023,0.0229,0.0194,0.0186,0.0176,0.0172,0.0132,0.0124,0.0094,0.008,0.0075,0.0091,0.0052,0.0038,0.004,0.0041,0.0113,0.012,0.0126,0,0,0,0,0,0.0264,0.0282,0.0268,0.0265,0.024,0.0229,0.0224,0.0194,0.0177,0.0182,0.0153,0.0125,0.0086,0.008,0.0073,0.0089,0.0037,0.0039,0.0041,0.011,0.0118,0.0126,0,0,0,0,0,0,0.0306,0.0278,0.0262,0.0272,0.0255,0.0221,0.0224,0.0202,0.0183,0.0177,0.0136,0.0127,0.0122,0.0098,0.0091,0.0089,0.0057,0.0058,0.0112,0.012,0.0126,0.0142,0.005,0,0,0,0,0,0.0317,0.0318,0.0289,0.0299,0.0292,0.0259,0.0251,0.023,0.0208,0.0198,0.017,0.0143,0.0125,0.0117,0.0095,0.0097,0.0071,0.0102,0.0109,0.0115,0.0123,0.0103,0.0109,0.0048,0.0048,0.0048,0,0,0.0336,0.0321,0.0322,0.0307,0.029,0.0292,0.0253,0.0247,0.0249,0.0194,0.0194,0.0164,0.013,0.0129,0.0125,0.0111,0.0118,0.0117,0.0123,0.0128,0.0106,0.0112,0.0117,0.0049,0.0049,0.0049,0,0,0.0376,0.0362,0.0373,0.0363,0.0341,0.0322,0.0324,0.0295,0.0282,0.0275,0.0238,0.0223,0.0194,0.0177,0.0164,0.0196,0.0152,0.0187,0.0235,0.0216,0.0221,0.0225,0.0198,0.0199,0.0193,0.0193,0.0193,0,0.0399,0.0409,0.0378,0.0387,0.0386,0.0341,0.0358,0.0342,0.0312,0.0311,0.0285,0.025,0.0219,0.0223,0.023,0.0212,0.0189,0.0209,0.0226,0.0229,0.0232,0.0203,0.0203,0.0197,0.0196,0.0196,0.0196,0,0.0442,0.045,0.046,0.0453,0.0451,0.0458,0.0432,0.0428,0.0404,0.0384,0.0377,0.0333,0.0313,0.0302,0.0274,0.0284,0.0257,0.0235,0.0207,0.0242,0.021,0.0209,0.0202,0.0201,0.02,0.0199,0,0,0.0488,0.0489,0.0491,0.0501,0.0486,0.049,0.05,0.0497,0.0509,0.0472,0.0485,0.0448,0.0417,0.0401,0.0363,0.0347,0.0342,0.0305,0.0302,0.0282,0.0294,0.0279,0.0276,0.0321,0.0321,0.0322,0.0263,0,0.0529,0.0563,0.0551,0.0587,0.0603,0.0576,0.059,0.0581,0.0566,0.0568,0.052,0.0513,0.0457,0.0449,0.0424,0.0365,0.0342,0.0359,0.026,0.0257,0.0243,0.0276,0.0288,0.0237,0.0261,0.0261,0.0261,0,0.0569,0.0587,0.063,0.0653,0.0658,0.0673,0.0691,0.0701,0.0688,0.0677,0.0658,0.0612,0.0583,0.0527,0.0445,0.0457,0.0384,0.0331,0.0327,0.0288,0.0241,0.0205,0.0234,0.0033,0.0258,0.0258,0.0259,0,0.061,0.0641,0.0679,0.0685,0.0703,0.0721,0.0733,0.0735,0.0759,0.0749,0.0757,0.0704,0.0682,0.0591,0.0475,0.0459,0.038,0.0341,0.0257,0.0254,0.0233,0.0228,0.006,0.0281,0.0282,0.0282,0.0282,0,0.0654,0.0685,0.0701,0.0721,0.0773,0.0769,0.0822,0.0827,0.0846,0.0883,0.0817,0.0833,0.0697,0.0628,0.051,0.0389,0.0403,0.0274,0.0245,0.0259,0.0257,0.0056,-0.0042,0.0279,0.028,0.028,0.0281,0,0.0693,0.0701,0.0749,0.0778,0.0792,0.0832,0.0884,0.0926,0.093,0.0977,0.0975,0.0933,0.0854,0.071,0.057,0.0444,0.0226,0.027,0.0293,0.0268,0.0,-0.0092,-0.0234,-0.0308,0.0168,0.0167,0.0167,0,0.0718,0.0743,0.0792,0.0826,0.0843,0.0896,0.094,0.0969,0.1019,0.1044,0.1076,0.1017,0.1002,0.0794,0.0581,0.038,0.0213,0.0224,0.0195,-0.0006,-0.0132,-0.0173,-0.0227,0.0189,0.0188,0.0188,0.0188,0,0.0768,0.078,0.0821,0.0887,0.0939,0.1006,0.107,0.1121,0.1156,0.1197,0.1252,0.1246,0.1058,0.0894,0.0608,0.0441,0.0101,0.0212,-0.0,-0.0127,-0.0177,-0.0264,0.0205,0.0186,0.0186,0.0186,0.0186,0.0186,0.0805,0.0846,0.0894,0.096,0.1027,0.1115,0.1185,0.1258,0.1351,0.1444,0.1418,0.1487,0.1185,0.0825,0.0546,0.005,0.0082,-0.0098,-0.0193,-0.0216,-0.0288,0.0176,0.0127,0.0127,0.0127,0.0127,0.0127,0,0.0849,0.0897,0.0964,0.1055,0.1143,0.1162,0.1275,0.1357,0.1481,0.1603,0.1675,0.1624,0.1212,0.0773,0.0114,-0.0273,-0.0402,-0.0497,-0.0578,-0.0614,-0.0212,-0.0216,-0.0334,-0.0334,-0.0334,-0.0334,-0.0334,-0.0333,0.0875,0.0949,0.0988,0.1139,0.1209,0.1335,0.1408,0.1529,0.1651,0.1833,0.1948,0.2012,0.1636,0.0388,-0.0504,-0.0719,-0.097,-0.1,-0.114,-0.0912,-0.0883,-0.0855,-0.0884,-0.1141,-0.1142,-0.1479,-0.1483,-0.1486]}],[{"header":{"parameterUnit":"m.s-1","parameterCategory":2,"la1":30.2991,"la2":30.254,"lo1":-89.0895,"lo2":-89.0444,"dy":0.0017,"dx":0.0017,"nx":28,"ny":28,"refTime":"2023-09-13T21:00:00:Z","depth":"2","parameterNumber":2,"parameterNumberName":"U-component_of_CURRENTS"},"data":[0,0,0,0,0,0,0,0,0,0,0,0,0,0,0,0,0,0,0,0,0,0,0,0,0,0,0,0,0,0,0,0,0,0,0,0,0,0,0,0,0,0,0,0,0,0,0,0,0,0,0,0,0,0,0,0,0,0,0.1794,0.1794,0,0.1849,0.1849,0.185,0.1853,0.1852,0.1852,0.1851,0.1878,0.1879,0.188,0,0,0,0,0,0,0,0,0,0,0,0,0,0.171,0.1712,0.1794,0.1794,0.1795,0.1848,0.1849,0.185,0.1853,0.1852,0.1851,0.1851,0.1877,0.1879,0.188,0,0,0,0,0,0,0,0,0,0,0,0,0,0.1753,0.1712,0.1793,0.1803,0.1805,0.1848,0.1849,0.185,0.1853,0.1852,0.1851,0.185,0.1877,0.1879,0.1881,0.191,0,0,0.1886,0.1887,0,0,0,0,0,0,0,0,0.1751,0.1756,0.1801,0.1803,0.1805,0.1843,0.183,0.1869,0.1853,0.1834,0.1851,0.185,0.1865,0.1868,0.1879,0.1911,0.1912,0.1887,0.1888,0.1888,0.1889,0,0,0,0,0,0,0,0.1748,0.1754,0.1815,0.1802,0.1804,0.1812,0.1817,0.1837,0.1853,0.1836,0.1836,0.1844,0.1865,0.1878,0.188,0.1912,0.1886,0.1888,0.1889,0.189,0.1993,0.1994,0,0,0,0,0,0,0.1743,0.1751,0.1813,0.1816,0.1776,0.1814,0.1819,0.1831,0.1853,0.1856,0.1844,0.1844,0.1875,0.1878,0.1881,0.1945,0.1888,0.189,0.1891,0.1991,0.1993,0.1995,0,0,0,0,0,0,0.1741,0.1748,0.1811,0.1785,0.1794,0.1816,0.183,0.1833,0.1846,0.186,0.1862,0.1854,0.1874,0.1878,0.191,0.1945,0.1891,0.1893,0.1989,0.1992,0.1994,0.2055,0,0,0,0,0,0,0.1738,0.1747,0.1756,0.1785,0.1795,0.1842,0.1831,0.1835,0.1852,0.1852,0.1869,0.1871,0.1874,0.1908,0.1912,0.1946,0.1894,0.1987,0.199,0.1993,0.2051,0.2059,0.2066,0,0,0,0,0,0.1735,0.175,0.1756,0.1763,0.1806,0.1843,0.185,0.1862,0.1853,0.1868,0.1881,0.187,0.193,0.1911,0.1916,0.1951,0.1986,0.1989,0.1993,0.2047,0.2057,0.2066,0,0,0,0,0,0,0.1719,0.1753,0.1759,0.1784,0.1814,0.1844,0.1861,0.1866,0.1889,0.1887,0.1891,0.1895,0.1938,0.1936,0.1914,0.1989,0.1956,0.1961,0.1996,0.2005,0.2013,0.2026,0.1896,0,0,0,0,0,0.1721,0.1741,0.1774,0.1796,0.1812,0.1837,0.1853,0.1863,0.1886,0.1895,0.1908,0.1927,0.1959,0.1972,0.1995,0.2035,0.2066,0.2061,0.2069,0.2075,0.209,0.2169,0.2186,0.2007,0.2007,0.2006,0,0,0.1719,0.1742,0.1753,0.1794,0.1818,0.1851,0.1844,0.1875,0.1904,0.1895,0.1937,0.1954,0.1975,0.2024,0.2043,0.2025,0.2145,0.208,0.2085,0.2097,0.2175,0.2192,0.2208,0.2009,0.2009,0.2008,0,0,0.1731,0.1751,0.1773,0.1802,0.1841,0.1862,0.1871,0.1907,0.1926,0.1968,0.1976,0.2014,0.205,0.2082,0.2101,0.2164,0.2183,0.2169,0.222,0.2297,0.2312,0.2326,0.24,0.242,0.2172,0.2172,0.2172,0,0.1727,0.1761,0.1785,0.1818,0.1846,0.1868,0.1902,0.1932,0.1973,0.2002,0.1986,0.2072,0.2082,0.2161,0.2185,0.2183,0.2231,0.2182,0.2308,0.2323,0.2336,0.2408,0.2429,0.2176,0.2175,0.2175,0.2175,0,0.1757,0.1787,0.1806,0.1855,0.1889,0.1923,0.1968,0.2002,0.2021,0.2054,0.2129,0.2155,0.2208,0.2219,0.2224,0.2328,0.2334,0.231,0.2286,0.2358,0.2429,0.245,0.218,0.2179,0.2178,0.2177,0,0,0.1743,0.1812,0.1819,0.185,0.1912,0.1944,0.2002,0.2069,0.2122,0.2157,0.2233,0.2287,0.2308,0.2331,0.2347,0.241,0.2545,0.2408,0.2411,0.2483,0.2732,0.2555,0.2561,0.2551,0.2554,0.2557,0.2747,0,0.176,0.182,0.1854,0.1917,0.1956,0.2001,0.2061,0.2123,0.218,0.2259,0.2301,0.2378,0.235,0.2394,0.2454,0.2532,0.2603,0.2496,0.2649,0.2654,0.2489,0.2579,0.2391,0.2528,0.2768,0.2772,0.2774,0,0.178,0.1821,0.188,0.1962,0.1984,0.2027,0.2133,0.2191,0.2303,0.2352,0.2429,0.2471,0.2582,0.2536,0.2707,0.2648,0.2701,0.2743,0.2751,0.2578,0.2515,0.2492,0.2557,0.281,0.2807,0.2804,0.2802,0,0.1765,0.1841,0.1887,0.1915,0.2008,0.205,0.2108,0.222,0.2292,0.2426,0.2498,0.2609,0.2695,0.2775,0.2837,0.2808,0.301,0.2975,0.2866,0.2855,0.2717,0.2685,0.3096,0.3096,0.3096,0.3095,0.3095,0,0.1774,0.1813,0.1884,0.1913,0.1989,0.2055,0.2156,0.2233,0.2361,0.2455,0.255,0.2638,0.2765,0.287,0.2905,0.2945,0.3068,0.29,0.2896,0.2729,0.2698,0.2946,0.2926,0.3102,0.3101,0.3099,0.3098,0,0.176,0.18,0.1862,0.1952,0.1985,0.2045,0.2176,0.2243,0.2377,0.2507,0.2557,0.2725,0.2841,0.2924,0.3075,0.3029,0.3079,0.3054,0.2837,0.28,0.2869,0.285,0.299,0.2985,0.2981,0.2978,0.2976,0,0.1761,0.1787,0.188,0.1908,0.195,0.2042,0.2099,0.2238,0.2307,0.2532,0.2578,0.2751,0.2785,0.2922,0.2914,0.2943,0.3016,0.2773,0.2646,0.2878,0.2862,0.2849,0.2836,0.2526,0.252,0.2515,0.2511,0,0.1756,0.1783,0.182,0.1883,0.1937,0.2012,0.2099,0.2153,0.231,0.2407,0.2521,0.257,0.269,0.2619,0.2645,0.2629,0.2741,0.2662,0.3028,0.2527,0.244,0.2422,0.2426,0.2465,0.247,0.2473,0.2476,0.2478,0.1735,0.1752,0.1784,0.1839,0.1893,0.1936,0.197,0.2023,0.2096,0.2172,0.2315,0.2315,0.2392,0.2286,0.226,0.2281,0.2436,0.2368,0.2386,0.2409,0.2266,0.217,0.2122,0.2125,0.2127,0.2129,0.213,0,0.1684,0.1696,0.1736,0.1778,0.1794,0.1862,0.1927,0.1893,0.1881,0.1966,0.1984,0.1837,0.1803,0.1911,0.1866,0.1865,0.1879,0.1812,0.1841,0.1887,0.1927,0.176,0.1483,0.1481,0.1479,0.1477,0,0,0.1649,0.1641,0.1657,0.1653,0.1686,0.1691,0.1706,0.1619,0.1638,0.1535,0.1537,0.1636,0.1802,0.1582,0.1592,0.1543,0.1697,0.1488,0.201,0.2088,0.2125,0.2253,0.2046,0,0,0,0,0]},{"header":{"parameterUnit":"m.s-1","parameterCategory":2,"la1":30.2991,"la2":30.254,"lo1":-89.0895,"lo2":-89.0444,"dy":0.0017,"dx":0.0017,"nx":28,"ny":28,"refTime":"2023-09-13T21:00:00:Z","depth":"2","parameterNumber":3,"parameterNumberName":"V-component_of_CURRENTS"},"data":[0,0,0,0,0,0,0,0,0,0,0,0,0,0,0,0,0,0,0,0,0,0,0,0,0,0,0,0,0,0,0,0,0,0,0,0,0,0,0,0,0,0,0,0,0,0,0,0,0,0,0,0,0,0,0,0,0,0,-0.0089,-0.0089,0,-0.0147,-0.0148,-0.0149,-0.0192,-0.0193,-0.0193,-0.0193,-0.0251,-0.0252,-0.0253,0,0,0,0,0,0,0,0,0,0,0,0,0,-0.003,-0.003,-0.0089,-0.0089,-0.009,-0.0147,-0.0148,-0.0149,-0.0192,-0.0193,-0.0193,-0.0194,-0.025,-0.0252,-0.0253,0,0,0,0,0,0,0,0,0,0,0,0,0,-0.0069,-0.0031,-0.0089,-0.0118,-0.0121,-0.0147,-0.0148,-0.0149,-0.0192,-0.0193,-0.0193,-0.0194,-0.025,-0.0251,-0.0253,-0.0254,0,0,-0.0259,-0.026,0,0,0,0,0,0,0,0,-0.0067,-0.0071,-0.0113,-0.0116,-0.012,-0.0163,-0.0148,-0.0184,-0.0192,-0.0166,-0.0193,-0.0194,-0.022,-0.0225,-0.0235,-0.0257,-0.0259,-0.0259,-0.026,-0.0261,-0.0261,0,0,0,0,0,0,0,-0.0064,-0.0069,-0.0112,-0.0114,-0.0118,-0.0134,-0.014,-0.0155,-0.019,-0.0168,-0.0171,-0.0177,-0.0222,-0.0233,-0.0237,-0.026,-0.0259,-0.0261,-0.0262,-0.0262,-0.0288,-0.0287,0,0,0,0,0,0,-0.0054,-0.0066,-0.0111,-0.0114,-0.0093,-0.0134,-0.0141,-0.0149,-0.019,-0.0197,-0.0176,-0.0179,-0.023,-0.0235,-0.0239,-0.0234,-0.0261,-0.0263,-0.0264,-0.0288,-0.0288,-0.0287,0,0,0,0,0,0,-0.0053,-0.0058,-0.0108,-0.0091,-0.0098,-0.0135,-0.0143,-0.015,-0.0156,-0.0196,-0.0203,-0.0175,-0.0231,-0.0237,-0.0247,-0.0236,-0.0263,-0.0265,-0.0289,-0.0288,-0.0287,-0.0228,0,0,0,0,0,0,-0.0051,-0.0057,-0.0052,-0.009,-0.0099,-0.0111,-0.0143,-0.015,-0.0159,-0.0162,-0.0197,-0.0203,-0.0231,-0.0244,-0.0249,-0.0239,-0.0266,-0.0289,-0.0288,-0.0288,-0.0231,-0.0226,-0.0221,0,0,0,0,0,-0.0049,-0.0034,-0.0051,-0.0056,-0.0094,-0.011,-0.0115,-0.0144,-0.0158,-0.0152,-0.018,-0.0202,-0.0243,-0.0245,-0.0251,-0.0242,-0.0289,-0.0288,-0.0288,-0.0233,-0.0227,-0.0222,0,0,0,0,0,0,0.0002,-0.0039,-0.0058,-0.0055,-0.0077,-0.0117,-0.0111,-0.0134,-0.0152,-0.0154,-0.0195,-0.0203,-0.0209,-0.0232,-0.0233,-0.0247,-0.027,-0.027,-0.0227,-0.0221,-0.0217,-0.0187,-0.0268,0,0,0,0,0,0.0013,0.0009,-0.0031,-0.0026,-0.0034,-0.0072,-0.008,-0.0101,-0.0126,-0.0134,-0.0162,-0.019,-0.021,-0.022,-0.0241,-0.0244,-0.0263,-0.0244,-0.0239,-0.0235,-0.0215,-0.0248,-0.0244,-0.0284,-0.0284,-0.0284,0,0,0.0034,0.0013,0.001,-0.0016,-0.0035,-0.0035,-0.0077,-0.0083,-0.0082,-0.0136,-0.0137,-0.0172,-0.0207,-0.0216,-0.022,-0.0232,-0.0231,-0.0233,-0.023,-0.0212,-0.0246,-0.0242,-0.0239,-0.0283,-0.0284,-0.0284,0,0,0.0075,0.0055,0.0063,0.0049,0.0025,0.0002,0.0004,-0.0032,-0.0045,-0.0054,-0.0096,-0.0122,-0.0149,-0.0179,-0.0196,-0.0176,-0.0205,-0.0183,-0.0135,-0.0168,-0.0164,-0.0162,-0.0171,-0.017,-0.0181,-0.0181,-0.0181,0,0.0103,0.0105,0.0067,0.0073,0.0073,0.0024,0.004,0.002,-0.0015,-0.0017,-0.0043,-0.009,-0.0131,-0.0141,-0.0141,-0.0165,-0.0177,-0.0154,-0.0161,-0.0159,-0.0157,-0.0167,-0.0167,-0.0178,-0.0178,-0.0179,-0.0179,0,0.0143,0.015,0.0159,0.0147,0.0142,0.0151,0.0117,0.0111,0.0086,0.0062,0.0048,-0.0013,-0.004,-0.0065,-0.0098,-0.0104,-0.0114,-0.0151,-0.0172,-0.0149,-0.0162,-0.0162,-0.0174,-0.0175,-0.0176,-0.0176,0,0,0.0187,0.0187,0.019,0.0204,0.0183,0.0186,0.0193,0.0186,0.0203,0.0153,0.017,0.0103,0.0067,0.0046,-0.0008,-0.0042,-0.0056,-0.0083,-0.0086,-0.0085,-0.0103,-0.0174,-0.0181,-0.0094,-0.0094,-0.0094,-0.0113,0,0.0231,0.0269,0.0251,0.0293,0.0311,0.0279,0.0294,0.0281,0.0265,0.0268,0.0199,0.0188,0.0111,0.0097,0.0052,-0.0019,-0.0054,-0.0045,-0.013,-0.0132,-0.0194,-0.0184,-0.0161,-0.0183,-0.0114,-0.0114,-0.0114,0,0.0268,0.0292,0.034,0.0372,0.0378,0.0394,0.0417,0.0427,0.0413,0.0399,0.037,0.0317,0.0268,0.019,0.0087,0.01,0.0008,-0.0058,-0.0062,-0.0145,-0.0204,-0.0198,-0.0186,-0.0115,-0.0115,-0.0115,-0.0115,0,0.0314,0.0353,0.04,0.0408,0.0431,0.0452,0.0469,0.047,0.05,0.0488,0.0508,0.043,0.0413,0.0287,0.0139,0.0117,0.0028,-0.0027,-0.0175,-0.018,-0.0185,-0.0192,-0.011,-0.011,-0.0109,-0.0109,-0.0109,0,0.0362,0.0399,0.0429,0.0453,0.0522,0.0516,0.0586,0.0588,0.0614,0.067,0.0585,0.0607,0.0436,0.0356,0.0196,0.0024,0.0066,-0.0154,-0.0193,-0.0165,-0.0169,-0.0135,-0.0137,-0.011,-0.011,-0.011,-0.011,0,0.0399,0.0415,0.0476,0.0522,0.0544,0.0595,0.0669,0.072,0.0735,0.0809,0.081,0.0758,0.0631,0.0446,0.0257,0.011,-0.0064,-0.0145,-0.0091,-0.0126,-0.026,-0.0259,-0.0302,-0.0305,-0.0307,-0.0309,-0.0311,0,0.042,0.0454,0.053,0.0578,0.0603,0.068,0.0735,0.0774,0.0835,0.0902,0.0942,0.0854,0.0765,0.0474,0.0197,-0.009,-0.0116,-0.0234,-0.0303,-0.0248,-0.0281,-0.0277,-0.0273,-0.0271,-0.0272,-0.0273,-0.0274,0,0.0467,0.049,0.0541,0.064,0.071,0.0799,0.0884,0.0946,0.1005,0.1058,0.11,0.1034,0.0751,0.0456,0.0076,-0.0109,-0.0193,-0.0267,-0.0206,-0.0245,-0.0226,-0.0257,-0.0252,-0.0283,-0.0282,-0.0281,-0.0281,-0.028,0.0498,0.0545,0.0611,0.0701,0.0793,0.0896,0.0966,0.1044,0.1135,0.1182,0.1156,0.1053,0.0774,0.023,-0.0041,-0.0299,-0.0315,-0.0401,-0.0394,-0.0387,-0.0399,-0.0388,-0.0474,-0.0474,-0.0475,-0.0475,-0.0475,0,0.0521,0.0578,0.0668,0.0773,0.0868,0.0916,0.1047,0.1099,0.1184,0.1203,0.1171,0.0884,0.0541,0.0245,-0.0159,-0.0421,-0.0407,-0.0483,-0.0398,-0.039,-0.0382,-0.0391,-0.0465,-0.0466,-0.0466,-0.0466,0,0,0.0537,0.0607,0.0649,0.0799,0.0885,0.1012,0.1083,0.116,0.12,0.1176,0.1115,0.0929,0.0602,0.0308,-0.0029,-0.0233,-0.0245,-0.0273,-0.0259,-0.0112,-0.0101,-0.0323,-0.0326,0,0,0,0,0]}],[{"header":{"parameterUnit":"m.s-1","parameterCategory":2,"la1":30.2991,"la2":30.254,"lo1":-89.0895,"lo2":-89.0444,"dy":0.0017,"dx":0.0017,"nx":28,"ny":28,"refTime":"2023-09-13T21:00:00:Z","depth":"4","parameterNumber":2,"parameterNumberName":"U-component_of_CURRENTS"},"data":[0,0,0,0,0,0,0,0,0,0,0,0,0,0,0,0,0,0,0,0,0,0,0,0,0,0,0,0,0,0,0,0,0,0,0,0,0,0,0,0,0,0,0,0,0,0,0,0,0,0,0,0,0,0,0,0,0,0,0.0791,0.0792,0,0.0836,0.0837,0.0837,0.0886,0.0886,0.0887,0.0888,0.0929,0.0929,0.0929,0,0,0,0,0,0,0,0,0,0,0,0,0,0.0738,0.0739,0.0791,0.0792,0.0793,0.0836,0.0837,0.0837,0.0885,0.0886,0.0887,0.0888,0.0929,0.0929,0.0929,0,0,0,0,0,0,0,0,0,0,0,0,0,0.0768,0.0739,0.0791,0.0823,0.0826,0.0836,0.0837,0.0837,0.0885,0.0887,0.0888,0.0889,0.0929,0.0929,0.0929,0.0907,0,0,0.0931,0.0931,0,0,0,0,0,0,0,0,0.0767,0.077,0.0818,0.0821,0.0825,0.0858,0.0833,0.0861,0.0885,0.0861,0.0888,0.089,0.0905,0.0907,0.0911,0.0909,0.0911,0.0931,0.0931,0.0931,0.0932,0,0,0,0,0,0,0,0.0764,0.0768,0.0807,0.0818,0.0823,0.0832,0.0838,0.0839,0.0874,0.0863,0.0867,0.0875,0.0907,0.091,0.0912,0.0912,0.0931,0.0931,0.0932,0.0932,0.0973,0.0974,0,0,0,0,0,0,0.0761,0.0766,0.0806,0.0809,0.08,0.0832,0.0839,0.0845,0.0874,0.0881,0.0873,0.0877,0.0909,0.0912,0.0914,0.0962,0.0931,0.0932,0.0932,0.0972,0.0973,0.0974,0,0,0,0,0,0,0.076,0.0764,0.0804,0.079,0.0796,0.0832,0.0839,0.0845,0.0874,0.0882,0.0889,0.0899,0.091,0.0913,0.0939,0.0962,0.0932,0.0932,0.0971,0.0972,0.0974,0.1012,0,0,0,0,0,0,0.0758,0.0763,0.0773,0.079,0.0797,0.0825,0.0838,0.0845,0.0876,0.0881,0.0905,0.0909,0.0911,0.0938,0.0939,0.0962,0.0933,0.097,0.0972,0.0973,0.101,0.1015,0.1019,0,0,0,0,0,0.0756,0.0761,0.0773,0.0778,0.0807,0.0826,0.0831,0.0859,0.0876,0.089,0.0911,0.091,0.0949,0.0939,0.094,0.0963,0.0969,0.0971,0.0973,0.1008,0.1014,0.1019,0,0,0,0,0,0,0.0744,0.0767,0.078,0.0794,0.0816,0.0835,0.0852,0.0869,0.0896,0.0908,0.0917,0.0922,0.0947,0.095,0.0939,0.098,0.096,0.0962,0.0986,0.0992,0.0996,0.0999,0.0933,0,0,0,0,0,0.0745,0.0754,0.078,0.0791,0.0806,0.0832,0.0847,0.0868,0.089,0.0904,0.092,0.0938,0.0949,0.0969,0.097,0.0996,0.0995,0.1013,0.1017,0.1021,0.1024,0.1039,0.1045,0.098,0.098,0.098,0,0,0.0742,0.0756,0.0762,0.0789,0.081,0.0832,0.0845,0.0874,0.0897,0.0902,0.0939,0.0945,0.0955,0.0981,0.0995,0.0995,0.104,0.1023,0.1026,0.1028,0.1042,0.1048,0.1054,0.0981,0.0981,0.0981,0,0,0.0741,0.0759,0.0771,0.0792,0.0828,0.0842,0.0856,0.0888,0.0913,0.0944,0.0951,0.0976,0.0999,0.1012,0.1022,0.1051,0.105,0.1058,0.1099,0.1113,0.1119,0.1123,0.1134,0.114,0.1075,0.1075,0.1075,0,0.0743,0.0759,0.0778,0.08,0.0821,0.085,0.0874,0.0897,0.0933,0.0956,0.0964,0.1004,0.1012,0.1046,0.1065,0.1061,0.107,0.1078,0.1119,0.1124,0.1128,0.1138,0.1143,0.1077,0.1077,0.1077,0.1077,0,0.075,0.0773,0.0783,0.0818,0.0842,0.0866,0.0902,0.093,0.0962,0.0986,0.1028,0.1042,0.1075,0.1081,0.1088,0.1127,0.1123,0.111,0.1105,0.1137,0.1145,0.115,0.108,0.108,0.1079,0.1078,0,0,0.0731,0.078,0.0786,0.0811,0.0856,0.0876,0.0916,0.096,0.0997,0.1032,0.1077,0.1105,0.1126,0.1137,0.1147,0.1168,0.1209,0.1167,0.1166,0.1177,0.1247,0.1213,0.1215,0.121,0.1211,0.1212,0.1243,0,0.0736,0.0774,0.0798,0.084,0.0866,0.0905,0.0941,0.0986,0.1028,0.1075,0.1105,0.1148,0.1144,0.1177,0.1195,0.1201,0.1224,0.1201,0.1215,0.1216,0.1181,0.122,0.1215,0.1246,0.1247,0.1248,0.1249,0,0.0735,0.0763,0.0805,0.0861,0.0878,0.091,0.0978,0.1016,0.1084,0.1121,0.117,0.1196,0.1243,0.1231,0.1265,0.1256,0.1262,0.1259,0.126,0.1217,0.119,0.1207,0.1257,0.1257,0.1256,0.1256,0.1255,0,0.0706,0.0765,0.0798,0.0818,0.0886,0.0922,0.0967,0.1037,0.1078,0.1164,0.1204,0.1251,0.1293,0.13,0.1322,0.1301,0.135,0.1313,0.1282,0.1279,0.1282,0.1277,0.1334,0.1334,0.1334,0.1334,0.1334,0,0.069,0.0718,0.0795,0.0813,0.0865,0.0925,0.0986,0.104,0.1118,0.117,0.1237,0.1277,0.1316,0.1352,0.1345,0.1342,0.1373,0.1296,0.1289,0.1298,0.1294,0.1286,0.128,0.1335,0.1335,0.1335,0.1334,0,0.0647,0.0695,0.0737,0.082,0.0851,0.0894,0.0989,0.103,0.1121,0.119,0.1226,0.1313,0.1367,0.1397,0.1421,0.1377,0.1372,0.1365,0.1393,0.1385,0.1279,0.1275,0.1309,0.1308,0.1307,0.1307,0.1306,0,0.0627,0.0643,0.0731,0.0758,0.08,0.0873,0.0917,0.102,0.1063,0.1199,0.1221,0.1324,0.1372,0.1374,0.1408,0.1407,0.139,0.1376,0.1303,0.1289,0.1279,0.1275,0.1272,0.1305,0.1305,0.1305,0.1304,0,0.0574,0.061,0.0643,0.0708,0.0762,0.0809,0.0887,0.0917,0.1038,0.1129,0.1202,0.125,0.1316,0.134,0.1376,0.1361,0.1372,0.1367,0.1366,0.1298,0.1284,0.1274,0.1272,0.1302,0.1302,0.1302,0.1303,0,0.0532,0.0544,0.0592,0.0649,0.0706,0.0742,0.0786,0.0855,0.0917,0.108,0.1102,0.1214,0.1305,0.1319,0.1339,0.1346,0.1303,0.1238,0.1244,0.1247,0.1215,0.1188,0.1179,0,0,0,0,0,0.0494,0.0507,0.0533,0.0594,0.0646,0.0683,0.0764,0.0812,0.094,0.0969,0.1038,0.1102,0.1168,0.1218,0.1209,0.1292,0.1294,0.1275,0.1218,0.1288,0.1291,0.126,0,0,0,0,0,0,0.047,0.0491,0.0509,0.0533,0.0568,0.0618,0.0665,0.0742,0.0764,0.0899,0.0936,0.1042,0.111,0.1169,0.1191,0.1207,0.1149,0.1348,0.1345,0.1286,0.1289,0.1291,0.126,0,0,0,0,0]},{"header":{"parameterUnit":"m.s-1","parameterCategory":2,"la1":30.2991,"la2":30.254,"lo1":-89.0895,"lo2":-89.0444,"dy":0.0017,"dx":0.0017,"nx":28,"ny":28,"refTime":"2023-09-13T21:00:00:Z","depth":"4","parameterNumber":3,"parameterNumberName":"V-component_of_CURRENTS"},"data":[0,0,0,0,0,0,0,0,0,0,0,0,0,0,0,0,0,0,0,0,0,0,0,0,0,0,0,0,0,0,0,0,0,0,0,0,0,0,0,0,0,0,0,0,0,0,0,0,0,0,0,0,0,0,0,0,0,0,-0.0105,-0.0106,0,-0.0141,-0.0141,-0.0142,-0.0162,-0.0162,-0.0163,-0.0163,-0.0197,-0.0198,-0.0199,0,0,0,0,0,0,0,0,0,0,0,0,0,-0.0081,-0.0081,-0.0105,-0.0106,-0.0106,-0.0141,-0.0141,-0.0142,-0.0162,-0.0162,-0.0163,-0.0163,-0.0197,-0.0198,-0.0199,0,0,0,0,0,0,0,0,0,0,0,0,0,-0.0102,-0.0082,-0.0105,-0.0121,-0.0122,-0.0141,-0.0141,-0.0142,-0.0162,-0.0162,-0.0163,-0.0163,-0.0197,-0.0198,-0.0199,-0.0205,0,0,-0.0203,-0.0204,0,0,0,0,0,0,0,0,-0.01,-0.0103,-0.0118,-0.012,-0.0122,-0.0147,-0.0145,-0.0163,-0.0162,-0.0147,-0.0163,-0.0163,-0.018,-0.0183,-0.019,-0.0207,-0.0208,-0.0203,-0.0204,-0.0205,-0.0205,0,0,0,0,0,0,0,-0.0099,-0.0101,-0.012,-0.0118,-0.0121,-0.0134,-0.0137,-0.0149,-0.0163,-0.0149,-0.015,-0.0154,-0.0181,-0.0188,-0.0191,-0.0209,-0.0203,-0.0205,-0.0205,-0.0206,-0.025,-0.025,0,0,0,0,0,0,-0.0093,-0.01,-0.0118,-0.0121,-0.0111,-0.0135,-0.0138,-0.0139,-0.0163,-0.0167,-0.0154,-0.0155,-0.0186,-0.0189,-0.0192,-0.0205,-0.0205,-0.0206,-0.0207,-0.025,-0.025,-0.0251,0,0,0,0,0,0,-0.0092,-0.0094,-0.0117,-0.0111,-0.0115,-0.0135,-0.0136,-0.014,-0.0152,-0.0167,-0.017,-0.0163,-0.0186,-0.019,-0.0207,-0.0207,-0.0207,-0.0208,-0.0249,-0.025,-0.025,-0.0229,0,0,0,0,0,0,-0.0091,-0.0094,-0.0096,-0.0111,-0.0115,-0.0127,-0.0136,-0.014,-0.0154,-0.0156,-0.0176,-0.0179,-0.0187,-0.0205,-0.0208,-0.0208,-0.0209,-0.0249,-0.0249,-0.025,-0.0229,-0.0228,-0.0228,0,0,0,0,0,-0.009,-0.0091,-0.0096,-0.0098,-0.0116,-0.0127,-0.013,-0.0145,-0.0154,-0.0158,-0.0174,-0.0179,-0.0212,-0.0206,-0.021,-0.021,-0.0248,-0.0249,-0.025,-0.0229,-0.0228,-0.0228,0,0,0,0,0,0,-0.0086,-0.0093,-0.0099,-0.0103,-0.0114,-0.013,-0.0137,-0.0148,-0.0164,-0.0168,-0.0183,-0.0188,-0.0199,-0.0213,-0.0206,-0.0227,-0.0231,-0.0233,-0.0214,-0.0214,-0.0213,-0.0209,-0.021,0,0,0,0,0,-0.0084,-0.0084,-0.0096,-0.01,-0.0105,-0.0123,-0.0131,-0.014,-0.0155,-0.0163,-0.0176,-0.0193,-0.0205,-0.0216,-0.0225,-0.0241,-0.0259,-0.0245,-0.0244,-0.0244,-0.0244,-0.0274,-0.0276,-0.0254,-0.0254,-0.0254,0,0,-0.0085,-0.0088,-0.009,-0.0099,-0.011,-0.0111,-0.0128,-0.0139,-0.014,-0.0164,-0.0172,-0.0188,-0.0208,-0.0219,-0.0227,-0.0232,-0.0261,-0.0245,-0.0244,-0.0245,-0.0275,-0.0277,-0.0279,-0.0254,-0.0254,-0.0254,0,0,-0.0079,-0.0088,-0.0084,-0.0089,-0.0101,-0.0109,-0.0112,-0.0128,-0.0137,-0.0149,-0.0164,-0.0184,-0.0203,-0.0217,-0.0227,-0.0234,-0.0253,-0.0239,-0.0237,-0.0267,-0.0269,-0.0271,-0.0298,-0.0303,-0.0244,-0.0244,-0.0244,0,-0.008,-0.0073,-0.0086,-0.0082,-0.0084,-0.0106,-0.0101,-0.0112,-0.0131,-0.0139,-0.0148,-0.0185,-0.0201,-0.0221,-0.0223,-0.0232,-0.0253,-0.0234,-0.0265,-0.0268,-0.027,-0.0298,-0.0303,-0.0243,-0.0243,-0.0243,-0.0243,0,-0.0066,-0.0063,-0.0062,-0.0059,-0.0065,-0.0066,-0.0079,-0.0088,-0.0102,-0.0116,-0.0139,-0.0167,-0.0192,-0.0201,-0.0215,-0.0239,-0.025,-0.0255,-0.0263,-0.0271,-0.03,-0.0306,-0.0242,-0.0242,-0.0242,-0.0243,0,0,-0.0056,-0.0051,-0.0051,-0.0043,-0.0051,-0.0053,-0.0057,-0.0067,-0.0072,-0.01,-0.0114,-0.0145,-0.017,-0.0184,-0.0208,-0.0239,-0.0273,-0.0256,-0.0258,-0.0277,-0.0341,-0.032,-0.0324,-0.0285,-0.0286,-0.0287,-0.0354,0,-0.004,-0.0022,-0.0025,-0.0011,-0.0003,-0.002,-0.002,-0.0035,-0.0055,-0.0074,-0.0117,-0.0136,-0.0161,-0.0177,-0.0212,-0.0255,-0.0288,-0.0255,-0.0336,-0.0338,-0.0314,-0.033,-0.029,-0.0359,-0.036,-0.0361,-0.0362,0,-0.0022,-0.0009,0.001,0.0019,0.002,0.0023,0.0017,0.0013,-0.0021,-0.0038,-0.0077,-0.011,-0.016,-0.0178,-0.0265,-0.0244,-0.0291,-0.0328,-0.0331,-0.0323,-0.0328,-0.0351,-0.0373,-0.0372,-0.0371,-0.037,-0.037,0,-0.0002,0.0015,0.0034,0.0038,0.0043,0.0045,0.0043,0.0021,0.0023,-0.002,-0.0028,-0.0097,-0.0126,-0.0199,-0.0278,-0.0276,-0.0372,-0.0378,-0.0405,-0.0404,-0.0412,-0.0409,-0.0439,-0.0439,-0.0439,-0.0439,-0.0439,0,0.002,0.0033,0.0046,0.0057,0.0079,0.0068,0.0081,0.0067,0.0051,0.0057,-0.0009,-0.0022,-0.0133,-0.02,-0.0276,-0.0358,-0.0375,-0.0408,-0.0421,-0.0402,-0.0397,-0.0416,-0.0412,-0.0441,-0.0441,-0.044,-0.044,0,0.003,0.0041,0.0065,0.0081,0.0089,0.01,0.0117,0.0125,0.0104,0.0109,0.0098,0.0027,-0.006,-0.017,-0.029,-0.0344,-0.043,-0.0454,-0.0427,-0.0437,-0.0445,-0.044,-0.0495,-0.0495,-0.0495,-0.0495,-0.0494,0,0.0035,0.0051,0.0084,0.0106,0.0114,0.0135,0.0154,0.0151,0.0166,0.0147,0.0154,0.0071,0.0013,-0.0138,-0.0263,-0.0415,-0.0429,-0.0477,-0.0463,-0.0444,-0.0452,-0.0447,-0.0442,-0.0494,-0.0494,-0.0494,-0.0494,0,0.0046,0.0058,0.0079,0.0127,0.0157,0.019,0.0218,0.0239,0.0241,0.0227,0.0214,0.0127,0.0028,-0.0112,-0.0234,-0.0341,-0.045,-0.0476,-0.0477,-0.0464,-0.0444,-0.045,-0.0446,-0.0494,-0.0494,-0.0494,-0.0494,0,0.0051,0.0067,0.0103,0.0149,0.0194,0.0238,0.0246,0.0273,0.0289,0.0279,0.0274,0.0161,0.0091,-0.0074,-0.0185,-0.0293,-0.0318,-0.0343,-0.0351,-0.0353,-0.0292,-0.0244,-0.0246,0,0,0,0,0,0.006,0.0088,0.0126,0.0184,0.0232,0.0263,0.0292,0.0297,0.0312,0.0321,0.0304,0.0218,0.0057,-0.0026,-0.0127,-0.0202,-0.0355,-0.0325,-0.0392,-0.0491,-0.0492,-0.0442,0,0,0,0,0,0,0.0065,0.01,0.0127,0.0212,0.0265,0.0318,0.0341,0.0343,0.0347,0.0343,0.0257,0.0217,0.0049,0.0132,-0.0115,-0.0153,-0.0205,-0.0406,-0.0408,-0.0491,-0.0491,-0.0492,-0.0441,0,0,0,0,0]}]]